This is the latest recevied weather packets stored in our database for station/object KD8ZLZ-13. If no packets are shown the sender has not sent any weather packets the latest 10 day(s).
| Time | Temp. | Humidity | Pressure | Rain* | Wind** | Luminosity | Snow |
|---|---|---|---|---|---|---|---|
| 1777624067 | 4.44° C | 87% | 1014.9 hPa | 0 mm | - | 0 W/m² | - |
| 1777623467 | 4.44° C | 86% | 1014.9 hPa | 0 mm | - | 0 W/m² | - |
| 1777622867 | 4.44° C | 85% | 1014.6 hPa | 0 mm | - | 0 W/m² | - |
| 1777622267 | 5° C | 86% | 1014.6 hPa | 0 mm | - | 0 W/m² | - |
| 1777621667 | 5° C | 83% | 1014.9 hPa | 0.25 mm | - | 0 W/m² | - |
| 1777621067 | 5° C | 85% | 1014.9 hPa | 0 mm | - | 0 W/m² | - |
| 1777620467 | 5° C | 82% | 1014.9 hPa | 0.25 mm | - | 0 W/m² | - |
| 1777619867 | 5° C | 87% | 1014.9 hPa | 0 mm | - | 0 W/m² | - |
| 1777619267 | 5° C | 87% | 1014.9 hPa | 0 mm | - | 0 W/m² | - |
| 1777618667 | 5° C | 85% | 1014.9 hPa | 0 mm | - | 0 W/m² | - |
| 1777618067 | 5° C | 86% | 1014.9 hPa | 0 mm | - | 0 W/m² | - |
| 1777617467 | 5° C | 85% | 1015.3 hPa | 0 mm | - | 0 W/m² | - |
| 1777616867 | 5° C | 86% | 1014.9 hPa | 0 mm | - | 0 W/m² | - |
| 1777616267 | 5° C | 85% | 1014.9 hPa | 0 mm | - | 0 W/m² | - |
| 1777615667 | 5° C | 83% | 1014.9 hPa | 0 mm | - | 0 W/m² | - |
| 1777615067 | 5.56° C | 82% | 1015.3 hPa | 0 mm | - | 0 W/m² | - |
| 1777614467 | 5.56° C | 82% | 1015.3 hPa | 0 mm | - | 0 W/m² | - |
| 1777613867 | 5.56° C | 83% | 1015.3 hPa | 0 mm | - | 0 W/m² | - |
| 1777613267 | 5.56° C | 75% | 1015.6 hPa | 0.25 mm | - | 0 W/m² | - |
| 1777612667 | 5.56° C | 74% | 1015.6 hPa | 0 mm | - | 0 W/m² | - |
| 1777612223 | 6.11° C | 73% | 1015.6 hPa | 0 mm | - | 0 W/m² | - |
| 1777612067 | 6.11° C | 73% | 1015.6 hPa | 0 mm | - | 0 W/m² | - |
| 1777611467 | 6.11° C | 70% | 1015.6 hPa | 0.25 mm | - | 0 W/m² | - |
| 1777610867 | 6.11° C | 69% | 1015.6 hPa | 0.25 mm | - | 0 W/m² | - |
| 1777610267 | 6.67° C | 66% | 1015.6 hPa | 0 mm | - | 0 W/m² | - |
* Rain latest hour (hover to see other rain measurements)
** Current wind speed in m/s (hover to see current wind gust speed)